START_TIME,STEP,MOV.,M6,t_acc.,M7,t_acc.,M19,t_acc.,H36,t_acc.
1979-08-05 18:05:03.520 ,0,0,,0,,0,,0,,0
1979-08-05 18:05:15.520 ,0,0,0.,12.0,0.,12.0,0.,12.0,0.,12.0
1979-08-05 18:05:13.720 ,0,1,0.,12.0,0.,12.0,0.,12.0,0.,12.0
1979-08-05 18:05:25.720 ,0,1,0.,12.0,0.,12.0,0.,12.0,0.,12.0
1979-08-05 18:05:38.320 ,0,0,0.,12.0,0.,12.0,0.,12.0,0.,12.0
1979-08-05 18:05:50.320 ,0,0,0.,12.0,0.,12.0,0.,12.0,0.,12.0
1979-08-05 18:06:01.720 ,0,0,0.,12.0,0.,12.0,0.,12.0,0.,12.0
1979-08-05 18:06:13.720 ,0,0,0.,12.0,0.,12.0,0.,12.0,0.,12.0
1979-08-05 18:06:25.720 ,5,1,0.,12.0,0.,12.0,0.,12.0,0.,12.0
1979-08-05 18:06:37.720 ,5,1,0.,12.0,0.,12.0,0.,12.0,0.,12.0
1979-08-05 18:06:49.720 ,5,0,0.,12.0,0.,12.0,0.,12.0,0.,12.0
1979-08-05 18:07:01.720 ,5,0,0.,12.0,0.,12.0,0.,12.0,0.,12.0
1979-08-05 18:07:13.720 ,4,1,0.,12.0,0.,12.0,0.,12.0,0.,12.0
1979-08-05 18:07:25.720 ,4,1,0.,12.0,0.,12.0,0.,12.0,0.,12.0
1979-08-05 18:07:37.720 ,4,0,0.,12.0,0.,12.0,0.,12.0,0.,12.0
1979-08-05 18:07:49.720 ,4,0,0.,12.0,0.,12.0,0.,12.0,0.,12.0
1979-08-05 18:08:01.720 ,3,1,0.,12.0,0.,12.0,0.,12.0,0.,12.0
1979-08-05 18:08:13.720 ,3,1,0.,12.0,0.,12.0,0.,12.0,0.,12.0
1979-08-05 18:08:25.720 ,3,0,0.,12.0,0.,12.0,0.,12.0,0.,12.0
1979-08-05 18:08:37.720 ,3,0,0.,12.0,0.,12.0,0.,12.0,0.,12.0
1979-08-05 18:08:49.720 ,2,1,0.,12.0,0.,12.0,0.,12.0,0.,12.0
1979-08-05 18:09:01.720 ,2,1,0.,12.0,0.,12.0,0.,12.0,0.,12.0
1979-08-05 18:09:13.720 ,2,0,0.,12.0,0.,12.0,0.,12.0,0.,12.0
1979-08-05 18:09:25.720 ,2,0,0.,12.0,0.,12.0,0.,12.0,0.,12.0
1979-08-05 18:09:37.720 ,1,1,0.,12.0,0.,12.0,0.,12.0,0.,12.0
1979-08-05 18:09:49.720 ,1,1,0.,12.0,0.,12.0,0.,12.0,0.,12.0
1979-08-05 18:10:01.720 ,0,0,0.,12.0,0.,12.0,0.,12.0,0.,12.0
1979-08-05 18:10:13.720 ,0,0,0.,12.0,0.,12.0,0.,12.0,0.,12.0
1979-08-05 18:10:25.720 ,1,0,0.,12.0,0.,12.0,0.,12.0,0.,12.0
1979-08-05 18:10:37.720 ,1,0,,0,,0,,0,,0
1979-08-05 18:10:49.720 ,0,0,0.,12.0,0.,12.0,0.,12.0,0.,12.0
1979-08-05 18:11:01.720 ,0,0,0.,12.0,0.,12.0,0.,12.0,0.,12.0
1979-08-05 18:11:13.720 ,0,1,0.,12.0,0.,12.0,0.,12.0,0.,12.0
1979-08-05 18:11:25.720 ,0,1,0.,12.0,0.,12.0,0.,12.0,0.,12.0
1979-08-05 18:11:37.720 ,0,0,0.,12.0,0.,12.0,0.,12.0,0.,12.0
1979-08-05 18:11:49.720 ,0,0,0.,12.0,0.,12.0,0.,12.0,0.,12.0
1979-08-05 18:12:01.720 ,1,1,0.,12.0,0.,12.0,0.,12.0,0.,12.0
1979-08-05 18:12:13.720 ,1,1,0.,12.0,0.,12.0,0.,12.0,0.,12.0
1979-08-05 18:12:25.720 ,1,0,0.,12.0,0.,12.0,0.,12.0,0.,12.0
1979-08-05 18:12:37.720 ,1,0,0.,12.0,0.,12.0,0.,12.0,0.,12.0
1979-08-05 18:12:49.720 ,2,1,0.,12.0,0.,12.0,0.,12.0,0.,12.0
1979-08-05 18:13:01.720 ,2,1,0.,12.0,0.,12.0,0.,12.0,0.,12.0
1979-08-05 18:13:13.720 ,2,0,0.,12.0,0.,12.0,0.,12.0,0.,12.0
1979-08-05 18:13:25.720 ,2,0,0.,12.0,0.,12.0,0.,12.0,0.,12.0
1979-08-05 18:13:37.720 ,3,1,0.,12.0,0.,12.0,0.,12.0,0.,12.0
1979-08-05 18:13:49.720 ,3,1,0.,12.0,0.,12.0,0.,12.0,0.,12.0
1979-08-05 18:14:01.720 ,3,0,0.,12.0,0.,12.0,0.,12.0,0.,12.0
1979-08-05 18:14:13.720 ,3,0,0.,12.0,0.,12.0,0.,12.0,0.,12.0
1979-08-05 18:14:25.720 ,4,1,0.,12.0,0.,12.0,0.,12.0,0.,12.0
1979-08-05 18:14:37.720 ,4,1,0.,12.0,0.,12.0,0.,12.0,0.,12.0
1979-08-05 18:14:49.720 ,4,0,0.,12.0,0.,12.0,0.,12.0,0.,12.0
1979-08-05 18:15:01.720 ,4,0,0.,12.0,0.,12.0,0.,12.0,0.,12.0
1979-08-05 18:15:13.720 ,5,1,0.,12.0,0.,12.0,0.,12.0,0.,12.0
1979-08-05 18:15:25.720 ,5,1,0.,12.0,0.,12.0,0.,12.0,0.,12.0
1979-08-05 18:15:37.720 ,5,0,0.,12.0,0.,12.0,0.,12.0,0.,12.0
1979-08-05 18:15:49.720 ,5,0,0.,12.0,0.,12.0,0.,12.0,0.,12.0
1979-08-05 18:16:01.720 ,6,1,0.,12.0,0.,12.0,0.,12.0,0.,12.0
1979-08-05 18:16:13.720 ,6,1,0.,12.0,0.,12.0,0.,12.0,0.,12.0
1979-08-05 18:16:25.720 ,6,0,0.,12.0,0.,12.0,0.,12.0,0.,12.0
1979-08-05 18:16:37.720 ,6,0,0.,12.0,0.,12.0,0.,12.0,0.,12.0
1979-08-05 18:16:49.720 ,7,1,0.,12.0,0.,12.0,0.,12.0,0.,12.0
1979-08-05 18:17:01.720 ,7,1,0.,12.0,0.,12.0,0.,12.0,0.,12.0
1979-08-05 18:17:13.720 ,7,1,0.,12.0,0.,12.0,0.,12.0,0.,12.0
1979-08-05 18:17:25.720 ,7,1,0.,12.0,0.,12.0,0.,12.0,0.,12.0
1979-08-05 18:17:37.720 ,7,1,0.,12.0,0.,12.0,0.,12.0,0.,12.0
1979-08-05 18:17:49.720 ,7,1,0.,12.0,0.,12.0,0.,12.0,0.,12.0
1979-08-05 18:18:01.720 ,7,0,0.,12.0,0.,12.0,0.,12.0,0.,12.0
1979-08-05 18:18:13.720 ,7,0,0.,12.0,0.,12.0,0.,12.0,0.,12.0
1979-08-05 18:18:25.720 ,6,1,0.,12.0,0.,12.0,0.,12.0,0.,12.0
1979-08-05 18:18:37.720 ,6,1,0.,12.0,0.,12.0,0.,12.0,0.,12.0
1979-08-05 18:18:49.720 ,6,0,0.,12.0,0.,12.0,0.,12.0,0.,12.0
1979-08-05 18:19:01.720 ,6,0,0.,12.0,0.,12.0,0.,12.0,0.,12.0
1979-08-05 18:19:13.720 ,5,1,0.,12.0,0.,12.0,0.,12.0,0.,12.0
1979-08-05 18:19:25.720 ,5,1,0.,12.0,0.,12.0,0.,12.0,0.,12.0
1979-08-05 18:19:37.720 ,5,0,0.,12.0,0.,12.0,0.,12.0,0.,12.0
1979-08-05 18:19:49.720 ,5,0,0.,12.0,0.,12.0,0.,12.0,0.,12.0
1979-08-05 18:20:01.720 ,4,1,0.,12.0,0.,12.0,0.,12.0,0.,12.0
1979-08-05 18:20:13.720 ,4,1,0.,12.0,0.,12.0,0.,12.0,0.,12.0
1979-08-05 18:20:25.720 ,4,0,0.,12.0,0.,12.0,0.,12.0,0.,12.0
1979-08-05 18:20:37.720 ,4,0,0.,12.0,0.,12.0,0.,12.0,0.,12.0
1979-08-05 18:20:49.720 ,3,1,0.,12.0,0.,12.0,0.,12.0,0.,12.0
1979-08-05 18:21:01.720 ,3,1,0.,12.0,0.,12.0,0.,12.0,0.,12.0
1979-08-05 18:21:13.720 ,3,0,0.,12.0,0.,12.0,0.,12.0,0.,12.0
1979-08-05 18:21:25.720 ,3,0,0.,12.0,0.,12.0,0.,12.0,0.,12.0
1979-08-05 18:21:37.720 ,2,1,0.,12.0,0.,12.0,0.,12.0,0.,12.0
1979-08-05 18:21:49.720 ,2,1,0.,12.0,0.,12.0,0.,12.0,0.,12.0
1979-08-05 18:22:01.720 ,2,0,0.,12.0,0.,12.0,0.,12.0,0.,12.0
1979-08-05 18:22:13.720 ,2,0,0.,12.0,0.,12.0,0.,12.0,0.,12.0
1979-08-05 18:22:25.720 ,1,1,0.,12.0,0.,12.0,0.,12.0,0.,12.0
1979-08-05 18:22:37.720 ,1,1,0.,12.0,0.,12.0,0.,12.0,0.,12.0
1979-08-05 18:22:49.720 ,1,0,0.,12.0,0.,12.0,0.,12.0,0.,12.0
1979-08-05 18:23:01.720 ,1,0,0.,12.0,0.,12.0,0.,12.0,0.,12.0
1979-08-05 18:23:13.720 ,0,1,0.,12.0,0.,12.0,0.,12.0,0.,12.0
1979-08-05 18:23:25.720 ,0,1,0.,12.0,0.,12.0,0.,12.0,0.,12.0
1979-08-05 18:23:37.720 ,0,0,0.,12.0,0.,12.0,0.,12.0,0.,12.0
1979-08-05 18:23:49.720 ,0,0,0.,12.0,0.,12.0,0.,12.0,0.,12.0
1979-08-05 18:24:01.720 ,0,0,0.,12.0,0.,12.0,0.,12.0,0.,12.0
1979-08-05 18:24:13.720 ,0,0,0.,12.0,0.,12.0,0.,12.0,0.,12.0
1979-08-05 18:24:25.720 ,0,0,0.,12.0,0.,12.0,0.,12.0,0.,12.0
1979-08-05 18:24:37.720 ,0,0,0.,12.0,0.,12.0,0.,12.0,0.,12.0
1979-08-05 18:24:49.720 ,1,1,0.,12.0,0.,12.0,0.,12.0,0.,12.0
1979-08-05 18:25:01.720 ,1,1,0.,12.0,0.,12.0,0.,12.0,0.,12.0
1979-08-05 18:25:13.720 ,1,0,0.,12.0,0.,12.0,0.,12.0,0.,12.0
1979-08-05 18:25:25.720 ,1,0,0.,12.0,0.,12.0,0.,12.0,0.,12.0
1979-08-05 18:25:37.720 ,2,1,0.,12.0,0.,12.0,0.,12.0,0.,12.0
1979-08-05 18:25:49.720 ,2,1,0.,12.0,0.,12.0,0.,12.0,0.,12.0
1979-08-05 18:26:01.720 ,2,0,0.,12.0,0.,12.0,0.,12.0,0.,12.0
1979-08-05 18:26:13.720 ,2,0,0.,12.0,0.,12.0,0.,12.0,0.,12.0
1979-08-05 18:26:25.720 ,3,1,0.,12.0,0.,12.0,0.,12.0,0.,12.0
1979-08-05 18:26:37.720 ,3,1,0.,12.0,0.,12.0,0.,12.0,0.,12.0
1979-08-05 18:26:49.720 ,3,0,0.,12.0,0.,12.0,0.,12.0,0.,12.0
1979-08-05 18:27:01.720 ,3,0,0.,12.0,0.,12.0,0.,12.0,0.,12.0
1979-08-05 18:27:13.720 ,4,1,0.,12.0,0.,12.0,0.,12.0,0.,12.0
1979-08-05 18:27:25.720 ,4,1,0.,12.0,0.,12.0,0.,12.0,0.,12.0
1979-08-05 18:27:37.720 ,4,0,0.,12.0,0.,12.0,0.,12.0,0.,12.0
1979-08-05 18:27:49.720 ,4,0,0.,12.0,0.,12.0,0.,12.0,0.,12.0
1979-08-05 18:28:01.720 ,5,1,0.,12.0,0.,12.0,0.,12.0,0.,12.0
1979-08-05 18:28:13.720 ,5,1,0.,12.0,0.,12.0,0.,12.0,0.,12.0
1979-08-05 18:28:25.720 ,5,0,0.,12.0,0.,12.0,0.,12.0,0.,12.0
1979-08-05 18:28:37.720 ,5,0,0.,12.0,0.,12.0,0.,12.0,0.,12.0
1979-08-05 18:28:49.720 ,6,1,0.,12.0,0.,12.0,0.,12.0,0.,12.0
1979-08-05 18:29:01.720 ,6,1,0.,12.0,0.,12.0,0.,12.0,0.,12.0
1979-08-05 18:29:13.720 ,6,0,0.,12.0,0.,12.0,0.,12.0,0.,12.0
1979-08-05 18:29:25.720 ,6,0,0.,12.0,0.,12.0,0.,12.0,0.,12.0
1979-08-05 18:29:37.720 ,7,1,0.,12.0,0.,12.0,0.,12.0,0.,12.0
1979-08-05 18:29:49.720 ,7,1,0.,12.0,0.,12.0,0.,12.0,0.,12.0
1979-08-05 18:30:01.720 ,7,0,0.,12.0,0.,12.0,0.,12.0,0.,12.0
1979-08-05 18:30:13.720 ,7,0,0.,12.0,0.,12.0,0.,12.0,0.,12.0
1979-08-05 18:30:25.720 ,7,1,0.,12.0,0.,12.0,0.,12.0,0.,12.0
1979-08-05 18:30:37.720 ,7,1,0.,12.0,0.,12.0,0.,12.0,0.,12.0
1979-08-05 18:30:49.720 ,0,0,0.,12.0,0.,12.0,0.,12.0,0.,12.0
1979-08-05 18:31:01.720 ,0,0,0.,12.0,0.,12.0,0.,12.0,0.,12.0
1979-08-05 18:31:13.720 ,6,1,0.,12.0,0.,12.0,0.,12.0,0.,12.0
1979-08-05 18:31:25.720 ,6,1,0.,12.0,0.,12.0,0.,12.0,0.,12.0
1979-08-05 18:31:37.720 ,6,0,0.,12.0,0.,12.0,0.,12.0,0.,12.0
1979-08-05 18:31:49.720 ,6,0,0.,12.0,0.,12.0,0.,12.0,0.,12.0
1979-08-05 18:32:01.720 ,5,1,0.,12.0,0.,12.0,0.,12.0,0.,12.0
1979-08-05 18:32:13.720 ,5,1,0.,12.0,0.,12.0,0.,12.0,0.,12.0
1979-08-05 18:32:25.720 ,5,0,0.,12.0,0.,12.0,0.,12.0,0.,12.0
1979-08-05 18:32:37.720 ,5,0,0.,12.0,0.,12.0,0.,12.0,0.,12.0
1979-08-05 18:32:49.720 ,4,1,0.,12.0,0.,12.0,0.,12.0,0.,12.0
1979-08-05 18:33:01.720 ,4,1,0.,12.0,0.,12.0,0.,12.0,0.,12.0
1979-08-05 18:33:13.720 ,4,0,0.,12.0,0.,12.0,0.,12.0,0.,12.0
1979-08-05 18:33:25.720 ,4,0,0.,12.0,0.,12.0,0.,12.0,0.,12.0
1979-08-05 18:33:37.720 ,3,1,0.,12.0,0.,12.0,0.,12.0,0.,12.0
1979-08-05 18:33:49.720 ,3,1,0.,12.0,0.,12.0,0.,12.0,0.,12.0
1979-08-05 18:34:01.720 ,3,0,0.,12.0,0.,12.0,0.,12.0,0.,12.0
1979-08-05 18:34:13.720 ,3,0,0.,12.0,0.,12.0,0.,12.0,0.,12.0
1979-08-05 18:34:25.720 ,2,1,0.,12.0,0.,12.0,0.,12.0,0.,12.0
1979-08-05 18:34:37.720 ,2,1,0.,12.0,0.,12.0,0.,12.0,0.,12.0
1979-08-05 18:34:49.720 ,2,0,0.,12.0,0.,12.0,0.,12.0,0.,12.0
1979-08-05 18:35:01.720 ,2,0,0.,12.0,0.,12.0,0.,12.0,0.,12.0
1979-08-05 18:35:13.720 ,1,1,0.,12.0,0.,12.0,0.,12.0,0.,12.0
1979-08-05 18:35:25.720 ,1,1,0.,12.0,0.,12.0,0.,12.0,0.,12.0
1979-08-05 18:35:37.720 ,1,0,0.,12.0,0.,12.0,0.,12.0,0.,12.0
1979-08-05 18:35:49.720 ,1,0,0.,12.0,0.,12.0,0.,12.0,0.,12.0
1979-08-05 18:36:01.720 ,0,1,0.,12.0,0.,12.0,0.,12.0,0.,12.0
1979-08-05 18:36:13.720 ,0,1,0.,12.0,0.,12.0,0.,12.0,0.,12.0
1979-08-05 18:36:25.720 ,0,0,0.,12.0,0.,12.0,0.,12.0,0.,12.0
1979-08-05 18:36:37.720 ,0,0,0.,12.0,0.,12.0,0.,12.0,0.,12.0
1979-08-05 18:36:49.720 ,0,1,0.,12.0,0.,12.0,0.,12.0,0.,12.0
1979-08-05 18:37:01.720 ,0,1,0.,12.0,0.,12.0,0.,12.0,0.,12.0
1979-08-05 18:37:13.720 ,0,0,0.,12.0,0.,12.0,0.,12.0,0.,12.0
1979-08-05 18:37:25.720 ,0,0,0.,12.0,0.,12.0,0.,12.0,0.,12.0
1979-08-05 18:37:37.720 ,1,1,0.,12.0,0.,12.0,0.,12.0,0.,12.0
1979-08-05 18:37:49.720 ,1,1,0.,12.0,0.,12.0,0.,12.0,0.,12.0
1979-08-05 18:38:01.720 ,1,0,0.,12.0,0.,12.0,0.,12.0,0.,12.0
1979-08-05 18:38:13.720 ,1,0,0.,12.0,0.,12.0,0.,12.0,0.,12.0
1979-08-05 18:38:25.720 ,2,1,0.,12.0,0.,12.0,0.,12.0,0.,12.0
1979-08-05 18:38:37.720 ,2,1,0.,12.0,0.,12.0,0.,12.0,0.,12.0
1979-08-05 18:38:49.720 ,2,0,0.,12.0,0.,12.0,0.,12.0,0.,12.0
1979-08-05 18:39:01.720 ,2,0,0.,12.0,0.,12.0,0.,12.0,0.,12.0
1979-08-05 18:39:13.720 ,3,1,0.,12.0,0.,12.0,0.,12.0,0.,12.0
1979-08-05 18:39:25.720 ,3,1,0.,12.0,0.,12.0,0.,12.0,0.,12.0
1979-08-05 18:39:37.720 ,3,0,0.,12.0,0.,12.0,0.,12.0,0.,12.0
1979-08-05 18:39:49.720 ,3,0,0.,12.0,0.,12.0,0.,12.0,0.,12.0
1979-08-05 18:40:01.720 ,4,1,0.,12.0,0.,12.0,0.,12.0,0.,12.0
1979-08-05 18:40:13.720 ,4,1,0.,12.0,0.,12.0,0.,12.0,0.,12.0
1979-08-05 18:40:25.720 ,4,0,0.,12.0,0.,12.0,0.,12.0,0.,12.0
1979-08-05 18:40:37.720 ,4,0,0.,12.0,0.,12.0,0.,12.0,0.,12.0
1979-08-05 18:40:49.720 ,5,1,0.,12.0,0.,12.0,0.,12.0,0.,12.0
1979-08-05 18:41:01.720 ,5,1,0.,12.0,0.,12.0,0.,12.0,0.,12.0
1979-08-05 18:41:13.720 ,5,0,0.,12.0,0.,12.0,0.,12.0,0.,12.0
1979-08-05 18:41:25.720 ,5,0,0.,12.0,0.,12.0,0.,12.0,0.,12.0
1979-08-05 18:41:37.720 ,6,1,0.,12.0,0.,12.0,0.,12.0,0.,12.0
1979-08-05 18:41:49.720 ,6,1,0.,12.0,0.,12.0,0.,12.0,0.,12.0
1979-08-05 18:42:01.720 ,6,0,0.,12.0,0.,12.0,0.,12.0,0.,12.0
1979-08-05 18:42:13.720 ,6,0,0.,12.0,0.,12.0,0.,12.0,0.,12.0
1979-08-05 18:42:25.720 ,7,0,0.,12.0,0.,12.0,0.,12.0,0.,12.0
1979-08-05 18:42:37.720 ,7,0,0.,12.0,0.,12.0,0.,12.0,0.,12.0
1979-08-05 18:42:49.720 ,7,0,0.,12.0,0.,12.0,0.,12.0,0.,12.0
1979-08-05 18:43:01.720 ,7,0,0.,12.0,0.,12.0,0.,12.0,0.,12.0
1979-08-05 18:43:13.720 ,4,1,0.,12.0,0.,12.0,0.,12.0,0.,12.0
1979-08-05 18:43:25.720 ,4,1,0.,12.0,0.,12.0,0.,12.0,0.,12.0
1979-08-05 18:43:37.720 ,0,1,0.,12.0,0.,12.0,0.,12.0,0.,12.0
1979-08-05 18:43:49.720 ,0,1,0.,12.0,0.,12.0,0.,12.0,0.,12.0
1979-08-05 18:44:01.720 ,3,1,0.,12.0,0.,12.0,0.,12.0,0.,12.0
1979-08-05 18:44:13.720 ,3,1,0.,12.0,0.,12.0,0.,12.0,0.,12.0
1979-08-05 18:44:25.720 ,7,1,0.,12.0,0.,12.0,0.,12.0,0.,12.0
1979-08-05 18:44:37.720 ,7,1,0.,12.0,0.,12.0,0.,12.0,0.,12.0
1979-08-05 18:44:49.720 ,4,1,,0,,0,,0,,0
1979-08-05 18:45:01.720 ,4,1,0.,12.0,0.,12.0,0.,12.0,0.,12.0
1979-08-05 18:45:13.720 ,0,1,0.,12.0,0.,12.0,0.,12.0,0.,12.0
1979-08-05 18:45:25.720 ,0,1,0.,12.0,0.,12.0,0.,12.0,0.,12.0
1979-08-05 18:45:37.720 ,3,1,0.,12.0,0.,12.0,0.,12.0,0.,12.0
1979-08-05 18:45:49.720 ,3,1,0.,12.0,0.,12.0,0.,12.0,0.,12.0
1979-08-05 18:46:01.720 ,7,1,0.,12.0,0.,12.0,0.,12.0,0.,12.0
1979-08-05 18:46:13.720 ,7,1,0.,12.0,0.,12.0,0.,12.0,0.,12.0
1979-08-05 18:46:25.720 ,4,1,0.,12.0,0.,12.0,0.,12.0,0.,12.0
1979-08-05 18:46:37.720 ,4,1,0.,12.0,0.,12.0,0.,12.0,0.,12.0
1979-08-05 18:46:49.720 ,0,1,0.,12.0,0.,12.0,0.,12.0,0.,12.0
1979-08-05 18:47:01.720 ,0,1,0.,12.0,0.,12.0,0.,12.0,0.,12.0
1979-08-05 18:47:13.720 ,3,1,0.,12.0,0.,12.0,0.,12.0,0.,12.0
1979-08-05 18:47:25.720 ,3,1,0.,12.0,0.,12.0,0.,12.0,0.,12.0
1979-08-05 18:47:37.720 ,7,1,0.,12.0,0.,12.0,0.,12.0,0.,12.0
1979-08-05 18:47:49.720 ,7,1,0.,12.0,0.,12.0,0.,12.0,0.,12.0
1979-08-05 18:48:01.720 ,4,1,0.,12.0,0.,12.0,0.,12.0,0.,12.0
1979-08-05 18:48:13.720 ,4,1,0.,12.0,0.,12.0,0.,12.0,0.,12.0
1979-08-05 18:48:25.720 ,0,1,0.,12.0,0.,12.0,0.,12.0,0.,12.0
1979-08-05 18:48:37.720 ,0,1,0.,12.0,0.,12.0,0.,12.0,0.,12.0
1979-08-05 18:48:49.720 ,3,1,0.,12.0,0.,12.0,0.,12.0,0.,12.0
1979-08-05 18:49:01.720 ,3,1,1.,12.0,0.,12.0,0.,12.0,0.,12.0
1979-08-05 18:49:13.720 ,7,1,0.,12.0,0.,12.0,0.,12.0,0.,12.0
1979-08-05 18:49:25.720 ,7,1,0.,12.0,0.,12.0,0.,12.0,0.,12.0
1979-08-05 18:49:37.720 ,4,1,0.,12.0,0.,12.0,0.,12.0,0.,12.0
1979-08-05 18:49:49.720 ,4,1,0.,12.0,0.,12.0,0.,12.0,0.,12.0
1979-08-05 18:50:01.720 ,0,1,0.,12.0,0.,12.0,0.,12.0,0.,12.0
1979-08-05 18:50:13.720 ,0,1,0.,12.0,0.,12.0,0.,12.0,0.,12.0
1979-08-05 18:50:25.720 ,3,1,0.,12.0,0.,12.0,0.,12.0,0.,12.0
1979-08-05 18:50:37.720 ,3,1,0.,12.0,0.,12.0,0.,12.0,0.,12.0
1979-08-05 18:50:49.720 ,7,1,0.,12.0,0.,12.0,0.,12.0,0.,12.0
1979-08-05 18:51:01.720 ,7,1,0.,12.0,0.,12.0,0.,12.0,0.,12.0
1979-08-05 18:51:13.720 ,4,1,0.,12.0,0.,12.0,0.,12.0,0.,12.0
1979-08-05 18:51:25.720 ,4,1,0.,12.0,0.,12.0,0.,12.0,0.,12.0
1979-08-05 18:51:37.720 ,0,1,0.,12.0,0.,12.0,0.,12.0,0.,12.0
1979-08-05 18:51:49.720 ,0,1,0.,12.0,0.,12.0,0.,12.0,0.,12.0
1979-08-05 18:52:01.720 ,3,1,0.,12.0,0.,12.0,0.,12.0,0.,12.0
1979-08-05 18:52:13.720 ,3,1,0.,12.0,0.,12.0,0.,12.0,0.,12.0
1979-08-05 18:52:25.720 ,7,1,0.,12.0,0.,12.0,0.,12.0,0.,12.0
1979-08-05 18:52:37.720 ,7,1,0.,12.0,0.,12.0,0.,12.0,0.,12.0
1979-08-05 18:52:49.720 ,4,1,0.,12.0,0.,12.0,0.,12.0,0.,12.0
1979-08-05 18:53:01.720 ,4,1,0.,12.0,0.,12.0,0.,12.0,0.,12.0
1979-08-05 18:53:13.720 ,0,1,0.,12.0,0.,12.0,0.,12.0,0.,12.0
1979-08-05 18:53:25.720 ,0,1,0.,12.0,0.,12.0,0.,12.0,0.,12.0
1979-08-05 18:53:37.720 ,0,0,0.,12.0,0.,12.0,0.,12.0,0.,12.0
1979-08-05 18:53:49.720 ,0,0,0.,12.0,0.,12.0,0.,12.0,0.,12.0
1979-08-05 18:54:01.720 ,0,0,0.,12.0,0.,12.0,0.,12.0,0.,12.0
1979-08-05 18:54:13.720 ,0,0,0.,12.0,0.,12.0,0.,12.0,0.,12.0
1979-08-05 18:54:25.720 ,5,1,0.,12.0,0.,12.0,0.,12.0,0.,12.0
1979-08-05 18:54:37.720 ,5,1,0.,12.0,0.,12.0,0.,12.0,0.,12.0
1979-08-05 18:54:49.720 ,5,0,0.,12.0,0.,12.0,0.,12.0,0.,12.0
1979-08-05 18:55:01.720 ,5,0,0.,12.0,0.,12.0,0.,12.0,0.,12.0
1979-08-05 18:55:13.720 ,4,1,0.,12.0,0.,12.0,0.,12.0,0.,12.0
1979-08-05 18:55:25.720 ,4,1,0.,12.0,0.,12.0,0.,12.0,0.,12.0
1979-08-05 18:55:37.720 ,4,0,0.,12.0,0.,12.0,0.,12.0,0.,12.0
1979-08-05 18:55:49.720 ,4,0,0.,12.0,0.,12.0,0.,12.0,0.,12.0
1979-08-05 18:56:01.720 ,3,1,0.,12.0,0.,12.0,0.,12.0,0.,12.0
1979-08-05 18:56:13.720 ,3,1,0.,12.0,0.,12.0,0.,12.0,0.,12.0
1979-08-05 18:56:25.720 ,3,0,0.,12.0,0.,12.0,0.,12.0,0.,12.0
1979-08-05 18:56:37.720 ,3,0,0.,12.0,0.,12.0,0.,12.0,0.,12.0
1979-08-05 18:56:49.720 ,2,1,0.,12.0,0.,12.0,0.,12.0,0.,12.0
1979-08-05 18:57:01.720 ,2,1,0.,12.0,0.,12.0,0.,12.0,0.,12.0
1979-08-05 18:57:13.720 ,2,0,0.,12.0,0.,12.0,0.,12.0,0.,12.0
1979-08-05 18:57:25.720 ,2,0,1.,12.0,0.,12.0,0.,12.0,0.,12.0
1979-08-05 18:57:37.720 ,1,1,0.,12.0,0.,12.0,0.,12.0,0.,12.0
1979-08-05 18:57:49.720 ,1,1,0.,12.0,0.,12.0,0.,12.0,0.,12.0
1979-08-05 18:58:01.720 ,1,0,0.,12.0,0.,12.0,0.,12.0,0.,12.0
1979-08-05 18:58:13.720 ,1,0,,0,,0,,0,,0
1979-08-05 18:58:25.720 ,0,1,0.,12.0,0.,12.0,0.,12.0,0.,12.0
1979-08-05 18:58:37.720 ,0,1,0.,12.0,0.,12.0,0.,12.0,0.,12.0
1979-08-05 18:58:49.720 ,0,0,0.,12.0,0.,12.0,0.,12.0,0.,12.0
1979-08-05 18:59:01.720 ,0,0,0.,12.0,0.,12.0,0.,12.0,0.,12.0
1979-08-05 18:59:13.720 ,0,1,0.,12.0,0.,12.0,0.,12.0,0.,12.0
1979-08-05 18:59:25.720 ,0,1,0.,12.0,0.,12.0,0.,12.0,0.,12.0
1979-08-05 18:59:37.720 ,0,0,0.,12.0,0.,12.0,0.,12.0,0.,12.0
1979-08-05 18:59:49.720 ,0,0,0.,12.0,0.,12.0,0.,12.0,0.,12.0
1979-08-05 19:00:01.720 ,1,1,0.,12.0,0.,12.0,0.,12.0,0.,12.0
1979-08-05 19:00:13.720 ,1,1,0.,12.0,0.,12.0,0.,12.0,0.,12.0
1979-08-05 19:00:25.720 ,1,0,0.,12.0,0.,12.0,0.,12.0,0.,12.0
1979-08-05 19:00:37.720 ,1,0,0.,12.0,0.,12.0,0.,12.0,0.,12.0
1979-08-05 19:00:49.720 ,2,1,0.,12.0,0.,12.0,0.,12.0,0.,12.0
1979-08-05 19:01:01.720 ,2,1,0.,12.0,0.,12.0,0.,12.0,0.,12.0
1979-08-05 19:01:13.720 ,2,0,0.,12.0,0.,12.0,0.,12.0,0.,12.0
1979-08-05 19:01:25.720 ,2,0,0.,12.0,0.,12.0,0.,12.0,0.,12.0
1979-08-05 19:01:37.720 ,3,1,0.,12.0,0.,12.0,0.,12.0,0.,12.0
1979-08-05 19:01:49.720 ,3,1,0.,12.0,0.,12.0,0.,12.0,0.,12.0
1979-08-05 19:02:01.720 ,3,0,0.,12.0,0.,12.0,0.,12.0,0.,12.0
1979-08-05 19:02:13.720 ,3,0,0.,12.0,0.,12.0,0.,12.0,0.,12.0
1979-08-05 19:02:25.720 ,4,1,0.,12.0,0.,12.0,0.,12.0,0.,12.0
1979-08-05 19:02:37.720 ,4,1,0.,12.0,0.,12.0,0.,12.0,0.,12.0
1979-08-05 19:02:49.720 ,4,0,0.,12.0,0.,12.0,0.,12.0,0.,12.0
1979-08-05 19:03:01.720 ,4,0,0.,12.0,0.,12.0,0.,12.0,0.,12.0
1979-08-05 19:03:13.720 ,5,1,0.,12.0,0.,12.0,0.,12.0,0.,12.0
1979-08-05 19:03:25.720 ,5,1,0.,12.0,0.,12.0,0.,12.0,0.,12.0
1979-08-05 19:03:37.720 ,5,0,0.,12.0,0.,12.0,0.,12.0,0.,12.0
1979-08-05 19:03:49.720 ,5,0,0.,12.0,0.,12.0,0.,12.0,0.,12.0
1979-08-05 19:04:01.720 ,6,1,0.,12.0,0.,12.0,0.,12.0,0.,12.0
1979-08-05 19:04:13.720 ,6,1,0.,12.0,0.,12.0,0.,12.0,0.,12.0
1979-08-05 19:04:25.720 ,6,0,0.,12.0,0.,12.0,0.,12.0,0.,12.0
1979-08-05 19:04:37.720 ,6,0,0.,12.0,0.,12.0,0.,12.0,0.,12.0
1979-08-05 19:04:49.720 ,7,1,0.,12.0,0.,12.0,0.,12.0,0.,12.0
1979-08-05 19:05:01.720 ,7,1,0.,12.0,0.,12.0,0.,12.0,0.,12.0
1979-08-05 19:05:13.720 ,7,0,0.,12.0,0.,12.0,0.,12.0,0.,12.0
1979-08-05 19:05:25.720 ,7,0,0.,12.0,0.,12.0,0.,12.0,0.,12.0
1979-08-05 19:05:37.720 ,7,1,0.,12.0,0.,12.0,0.,12.0,0.,12.0
1979-08-05 19:05:49.720 ,7,1,0.,12.0,0.,12.0,0.,12.0,0.,12.0
1979-08-05 19:06:01.720 ,7,0,0.,12.0,0.,12.0,0.,12.0,0.,12.0
1979-08-05 19:06:13.720 ,7,0,0.,12.0,0.,12.0,0.,12.0,0.,12.0
1979-08-05 19:06:25.720 ,6,1,0.,12.0,0.,12.0,0.,12.0,0.,12.0
1979-08-05 19:06:37.720 ,6,1,0.,12.0,0.,12.0,0.,12.0,0.,12.0
1979-08-05 19:06:49.720 ,6,0,0.,12.0,0.,12.0,0.,12.0,0.,12.0
1979-08-05 19:07:01.720 ,6,0,0.,12.0,0.,12.0,0.,12.0,0.,12.0
1979-08-05 19:07:13.720 ,5,1,0.,12.0,0.,12.0,0.,12.0,0.,12.0
1979-08-05 19:07:25.720 ,5,1,0.,12.0,0.,12.0,0.,12.0,0.,12.0
1979-08-05 19:07:37.720 ,5,0,0.,12.0,0.,12.0,0.,12.0,0.,12.0
1979-08-05 19:07:49.720 ,5,0,0.,12.0,0.,12.0,0.,12.0,0.,12.0
1979-08-05 19:08:01.720 ,4,1,0.,12.0,0.,12.0,0.,12.0,0.,12.0
1979-08-05 19:08:13.720 ,4,1,0.,12.0,0.,12.0,0.,12.0,0.,12.0
1979-08-05 19:08:25.720 ,4,0,0.,12.0,0.,12.0,0.,12.0,0.,12.0
1979-08-05 19:08:37.720 ,4,0,0.,12.0,0.,12.0,0.,12.0,0.,12.0
1979-08-05 19:08:49.720 ,3,1,0.,12.0,0.,12.0,0.,12.0,0.,12.0
1979-08-05 19:09:01.720 ,3,1,0.,12.0,0.,12.0,0.,12.0,0.,12.0
1979-08-05 19:09:13.720 ,3,0,0.,12.0,0.,12.0,0.,12.0,0.,12.0
1979-08-05 19:09:25.720 ,3,0,0.,12.0,0.,12.0,0.,12.0,0.,12.0
1979-08-05 19:09:37.720 ,2,1,0.,12.0,0.,12.0,0.,12.0,0.,12.0
1979-08-05 19:09:49.720 ,2,1,0.,12.0,0.,12.0,0.,12.0,0.,12.0
1979-08-05 19:10:01.720 ,2,0,0.,12.0,0.,12.0,0.,12.0,0.,12.0
1979-08-05 19:10:13.720 ,2,0,0.,12.0,0.,12.0,0.,12.0,0.,12.0
1979-08-05 19:10:25.720 ,1,1,0.,12.0,0.,12.0,0.,12.0,0.,12.0
1979-08-05 19:10:37.720 ,1,1,0.,12.0,0.,12.0,0.,12.0,0.,12.0
1979-08-05 19:10:49.720 ,1,0,0.,12.0,0.,12.0,0.,12.0,0.,12.0
1979-08-05 19:11:01.720 ,1,0,0.,12.0,0.,12.0,0.,12.0,0.,12.0
1979-08-05 19:11:13.720 ,0,1,0.,12.0,0.,12.0,0.,12.0,0.,12.0
1979-08-05 19:11:25.720 ,0,1,0.,12.0,0.,12.0,0.,12.0,0.,12.0
1979-08-05 19:11:37.720 ,0,0,0.,12.0,0.,12.0,0.,12.0,0.,12.0
1979-08-05 19:11:49.720 ,0,0,0.,12.0,0.,12.0,0.,12.0,0.,12.0
1979-08-05 19:12:01.720 ,0,1,1.,12.0,0.,12.0,0.,12.0,0.,12.0
1979-08-05 19:12:13.720 ,0,1,0.,12.0,0.,12.0,0.,12.0,0.,12.0
1979-08-05 19:12:25.720 ,0,0,0.,12.0,0.,12.0,0.,12.0,0.,12.0
1979-08-05 19:12:37.720 ,0,0,0.,12.0,0.,12.0,0.,12.0,0.,12.0
1979-08-05 19:12:49.720 ,1,1,0.,12.0,0.,12.0,0.,12.0,0.,12.0
1979-08-05 19:13:01.720 ,1,1,0.,12.0,0.,12.0,0.,12.0,0.,12.0
1979-08-05 19:13:13.720 ,1,0,0.,12.0,0.,12.0,0.,12.0,0.,12.0
1979-08-05 19:13:25.720 ,1,0,0.,12.0,0.,12.0,0.,12.0,0.,12.0
1979-08-05 19:13:37.720 ,2,1,0.,12.0,0.,12.0,0.,12.0,0.,12.0
1979-08-05 19:13:49.720 ,2,1,0.,12.0,0.,12.0,0.,12.0,0.,12.0
1979-08-05 19:14:01.720 ,2,0,0.,12.0,0.,12.0,0.,12.0,0.,12.0
1979-08-05 19:14:13.720 ,2,0,0.,12.0,0.,12.0,0.,12.0,0.,12.0
1979-08-05 19:14:25.720 ,3,1,0.,12.0,0.,12.0,0.,12.0,0.,12.0
1979-08-05 19:14:37.720 ,3,1,0.,12.0,0.,12.0,0.,12.0,0.,12.0
1979-08-05 19:14:49.720 ,3,0,0.,12.0,0.,12.0,0.,12.0,0.,12.0
1979-08-05 19:15:01.720 ,3,0,0.,12.0,0.,12.0,0.,12.0,0.,12.0
1979-08-05 19:15:13.720 ,4,1,0.,12.0,0.,12.0,0.,12.0,0.,12.0
1979-08-05 19:15:25.720 ,4,1,0.,12.0,0.,12.0,0.,12.0,0.,12.0
1979-08-05 19:15:37.720 ,4,0,0.,12.0,0.,12.0,0.,12.0,0.,12.0
1979-08-05 19:15:49.720 ,4,0,0.,12.0,0.,12.0,0.,12.0,0.,12.0
1979-08-05 19:16:01.720 ,5,1,0.,12.0,0.,12.0,0.,12.0,0.,12.0
1979-08-05 19:16:13.720 ,5,1,0.,12.0,0.,12.0,0.,12.0,0.,12.0
1979-08-05 19:16:25.720 ,5,0,0.,12.0,0.,12.0,0.,12.0,0.,12.0
1979-08-05 19:16:37.720 ,5,0,0.,12.0,0.,12.0,0.,12.0,0.,12.0
1979-08-05 19:16:49.720 ,6,1,0.,12.0,0.,12.0,0.,12.0,0.,12.0
1979-08-05 19:17:01.720 ,6,1,0.,12.0,0.,12.0,0.,12.0,0.,12.0
1979-08-05 19:17:13.720 ,6,0,0.,12.0,0.,12.0,0.,12.0,0.,12.0
1979-08-05 19:17:25.720 ,6,0,0.,12.0,0.,12.0,0.,12.0,0.,12.0
1979-08-05 19:17:37.720 ,7,1,0.,12.0,0.,12.0,0.,12.0,0.,12.0
1979-08-05 19:17:49.720 ,7,1,0.,12.0,0.,12.0,0.,12.0,0.,12.0
1979-08-05 19:18:01.720 ,7,0,0.,12.0,0.,12.0,0.,12.0,0.,12.0
1979-08-05 19:18:13.720 ,7,0,0.,12.0,0.,12.0,0.,12.0,0.,12.0
1979-08-05 19:18:25.720 ,0,0,0.,12.0,0.,12.0,0.,12.0,0.,12.0
1979-08-05 19:18:37.720 ,0,0,0.,12.0,0.,12.0,0.,12.0,0.,12.0
1979-08-05 19:18:49.720 ,0,0,0.,12.0,0.,12.0,0.,12.0,0.,12.0
1979-08-05 19:19:01.720 ,0,0,,0,,0,,0,,0
1979-08-05 19:19:13.720 ,6,1,0.,12.0,0.,12.0,0.,12.0,0.,12.0
1979-08-05 19:19:25.720 ,6,1,0.,12.0,0.,12.0,0.,12.0,0.,12.0
1979-08-05 19:19:37.720 ,6,0,0.,12.0,0.,12.0,0.,12.0,0.,12.0
1979-08-05 19:19:49.720 ,6,0,0.,12.0,0.,12.0,0.,12.0,0.,12.0
1979-08-05 19:20:01.720 ,5,1,0.,12.0,0.,12.0,0.,12.0,0.,12.0
1979-08-05 19:20:13.720 ,5,1,0.,12.0,0.,12.0,0.,12.0,0.,12.0
1979-08-05 19:20:25.720 ,5,0,0.,12.0,0.,12.0,0.,12.0,0.,12.0
1979-08-05 19:20:37.720 ,5,0,0.,12.0,0.,12.0,0.,12.0,0.,12.0
1979-08-05 19:20:49.720 ,4,1,0.,12.0,0.,12.0,0.,12.0,0.,12.0
1979-08-05 19:21:01.720 ,4,1,0.,12.0,0.,12.0,0.,12.0,0.,12.0
1979-08-05 19:21:13.720 ,4,0,0.,12.0,0.,12.0,0.,12.0,0.,12.0
1979-08-05 19:21:25.720 ,4,0,0.,12.0,0.,12.0,0.,12.0,0.,12.0
1979-08-05 19:21:37.720 ,3,1,0.,12.0,0.,12.0,0.,12.0,0.,12.0
1979-08-05 19:21:49.720 ,3,1,0.,12.0,0.,12.0,0.,12.0,0.,12.0
1979-08-05 19:22:01.720 ,3,0,0.,12.0,0.,12.0,0.,12.0,0.,12.0